Litchfield, MN

8:46 AM CDT on April 20, 2018 (GMT -0500)
Litchfield Municipal

Weather History for KLJF - November, 2012

Change the Weather History Date:

Saturday, November 3, 2012

  Actual Average Record
Temperature  
Mean Temperature 36 °F -  
Max Temperature 39 °F 46 °F 73 °F (1978)
Min Temperature 32 °F 29 °F 8 °F (1991)
Degree Days  
Heating Degree Days 30    
Moisture  
Dew Point 30 °F    
Average Humidity 80    
Maximum Humidity 93    
Minimum Humidity 70    
Precipitation  
Precipitation 0.00 in - - ()
Sea Level Pressure  
Sea Level Pressure 30.19 in    
Wind  
Wind Speed 1 mph (East)    
Max Wind Speed 6 mph    
Max Gust Speed -    
Visibility 10 miles    
Events Snow    
Averages and records for this station are not official NWS values.
T = Trace of Precipitation, MM = Missing Value Source: NWS Daily Summary

Daily Weather History Graph

Daily Weather History Graph

Search for Another Location

Airport or City:

Astronomy

Nov. 03, 2012 Rise Set
Actual Time 8:00 AM CDT 6:02 PM CDT
Civil Twilight 7:29 AM CDT 6:33 PM CDT
Nautical Twilight 6:54 AM CDT 7:08 PM CDT
Astronomical Twilight 6:20 AM CDT 7:42 PM CDT
Moon 9:40 PM CDT (11/3) 12:09 PM CDT (11/3)
Length of Visible Light 11h 03m
Length of Day
10h 02m
Waning Gibbous, 80% of the Moon is Illuminated
Nov 3
Waning Gibbous
Nov 6
Last Quarter
Nov 13
New
Nov 20
First Quarter
Nov 28
Full

Hourly Weather History & Observations

Time (CDT) Temp. Windchill Dew Point Humidity Pressure Visibility Wind Dir Wind Speed Gust Speed Precip Events Conditions
12:13 AM 33.8 °F - 26.6 °F 75% 30.16 in 10.0 mi Calm Calm - N/A   Overcast
12:33 AM 33.8 °F - 26.6 °F 75% 30.16 in 10.0 mi Calm Calm - N/A   Overcast
12:53 AM 35.6 °F - 26.6 °F 70% 30.16 in 10.0 mi Calm Calm - N/A   Unknown
1:13 AM 33.8 °F - 26.6 °F 75% 30.16 in 10.0 mi Calm Calm - N/A   Overcast
1:33 AM 33.8 °F - 26.6 °F 75% 30.17 in 10.0 mi Calm Calm - N/A   Unknown
1:53 AM 33.8 °F - 26.6 °F 75% 30.16 in 10.0 mi Calm Calm - N/A   Unknown
2:13 AM 33.8 °F - 26.6 °F 75% 30.16 in 10.0 mi Calm Calm - N/A   Unknown
2:33 AM 33.8 °F - 26.6 °F 75% 30.15 in 10.0 mi Calm Calm - N/A   Overcast
3:13 AM 33.8 °F - 26.6 °F 75% 30.16 in 10.0 mi Calm Calm - N/A   Unknown
3:33 AM 33.8 °F - 28.4 °F 81% 30.16 in 10.0 mi Calm Calm - N/A   Overcast
3:53 AM 33.8 °F 30.8 °F 28.4 °F 81% 30.16 in 10.0 mi NW 3.5 mph - N/A   Overcast
4:13 AM 33.8 °F - 28.4 °F 81% 30.16 in 10.0 mi Calm Calm - N/A   Overcast
4:33 AM 33.8 °F - 28.4 °F 81% 30.16 in 10.0 mi Calm Calm - N/A   Unknown
4:53 AM 33.8 °F - 28.4 °F 81% 30.16 in 10.0 mi Calm Calm - N/A   Unknown
5:13 AM 33.8 °F - 28.4 °F 81% 30.17 in 10.0 mi Calm Calm - N/A   Unknown
5:33 AM 33.8 °F - 28.4 °F 81% 30.18 in 10.0 mi Calm Calm - N/A   Overcast
5:53 AM 33.8 °F - 28.4 °F 81% 30.18 in 10.0 mi Calm Calm - N/A   Overcast
6:13 AM 33.8 °F - 28.4 °F 81% 30.18 in 10.0 mi Calm Calm - N/A   Unknown
6:33 AM 33.8 °F - 28.4 °F 81% 30.18 in 10.0 mi Calm Calm - N/A   Overcast
6:53 AM 33.8 °F 30.8 °F 28.4 °F 81% 30.18 in 10.0 mi North 3.5 mph - N/A Snow Light Snow
7:12 AM 33.8 °F 28.6 °F 28.4 °F 81% 30.18 in 10.0 mi North 5.8 mph - N/A   Overcast
7:33 AM 32.0 °F 27.5 °F 28.4 °F 87% 30.18 in 10.0 mi NNE 4.6 mph - N/A   Overcast
7:53 AM 32.0 °F 26.4 °F 26.6 °F 80% 30.18 in 10.0 mi NE 5.8 mph - N/A   Overcast
8:12 AM 32.0 °F 27.5 °F 28.4 °F 87% 30.19 in 10.0 mi NE 4.6 mph - N/A   Overcast
8:33 AM 32.0 °F 28.7 °F 28.4 °F 87% 30.19 in 10.0 mi ENE 3.5 mph - N/A   Overcast
8:53 AM 32.0 °F 26.4 °F 28.4 °F 87% 30.19 in 10.0 mi ENE 5.8 mph - N/A   Overcast
9:12 AM 33.8 °F - 28.4 °F 81% 30.20 in 10.0 mi Calm Calm - N/A   Overcast
9:33 AM 33.8 °F 29.6 °F 30.2 °F 87% 30.20 in 10.0 mi East 4.6 mph - N/A   Overcast
9:53 AM 33.8 °F 29.6 °F 30.2 °F 87% 30.21 in 10.0 mi East 4.6 mph - N/A   Overcast
10:13 AM 35.6 °F 30.7 °F 32.0 °F 87% 30.20 in 10.0 mi East 5.8 mph - N/A   Overcast
10:33 AM 35.6 °F 32.8 °F 33.8 °F 93% 30.21 in 10.0 mi East 3.5 mph - N/A   Overcast
10:53 AM 35.6 °F - 33.8 °F 93% 30.21 in 10.0 mi Calm Calm - N/A   Overcast
11:13 AM 35.6 °F 32.8 °F 33.8 °F 93% 30.21 in 10.0 mi East 3.5 mph - N/A   Overcast
11:33 AM 35.6 °F - 33.8 °F 93% 30.21 in 10.0 mi Calm Calm - N/A   Overcast
11:53 AM 35.6 °F - 33.8 °F 93% 30.21 in 10.0 mi Calm Calm - N/A   Overcast
12:13 PM 37.4 °F - 33.8 °F 87% 30.21 in 10.0 mi Calm Calm - N/A   Overcast
12:33 PM 37.4 °F - 35.6 °F 93% 30.20 in 10.0 mi Calm Calm - N/A   Overcast
12:53 PM 39.2 °F - 35.6 °F 87% 30.20 in 10.0 mi Calm Calm - N/A   Overcast
1:13 PM 39.2 °F - 35.6 °F 87% 30.20 in 10.0 mi Calm Calm - N/A   Overcast
1:33 PM 39.2 °F - 35.6 °F 87% 30.20 in 7.0 mi Calm Calm - N/A   Overcast
1:53 PM 39.2 °F - 35.6 °F 87% 30.20 in 10.0 mi Calm Calm - N/A   Overcast
2:13 PM 39.2 °F - 35.6 °F 87% 30.20 in 10.0 mi Calm Calm - N/A   Overcast
2:33 PM 39.2 °F 35.9 °F 35.6 °F 87% 30.20 in 10.0 mi East 4.6 mph - N/A   Overcast
2:53 PM 39.2 °F 35.9 °F 33.8 °F 81% 30.20 in 10.0 mi East 4.6 mph - N/A   Overcast
3:13 PM 39.2 °F 35.9 °F 32.0 °F 75% 30.19 in 10.0 mi ESE 4.6 mph - N/A   Overcast
3:33 PM 39.2 °F 37.0 °F 30.2 °F 70% 30.19 in 10.0 mi East 3.5 mph - N/A   Overcast
3:53 PM 39.2 °F 37.0 °F 32.0 °F 75% 30.19 in 10.0 mi ESE 3.5 mph - N/A   Overcast
4:13 PM 39.2 °F 37.0 °F 30.2 °F 70% 30.19 in 10.0 mi East 3.5 mph - N/A   Mostly Cloudy
4:33 PM 39.2 °F 37.0 °F 30.2 °F 70% 30.19 in 10.0 mi ESE 3.5 mph - N/A   Scattered Clouds
4:53 PM 39.2 °F 35.0 °F 30.2 °F 70% 30.19 in 10.0 mi East 5.8 mph - N/A   Mostly Cloudy
5:13 PM 39.2 °F - 30.2 °F 70% 30.18 in 10.0 mi Calm Calm - N/A   Overcast
5:33 PM 39.2 °F 37.0 °F 30.2 °F 70% 30.18 in 10.0 mi SE 3.5 mph - N/A   Overcast
5:53 PM 39.2 °F 37.0 °F 30.2 °F 70% 30.18 in 10.0 mi ESE 3.5 mph - N/A   Overcast
6:13 PM 37.4 °F 34.9 °F 30.2 °F 75% 30.18 in 10.0 mi East 3.5 mph - N/A   Overcast
6:33 PM 37.4 °F 34.9 °F 28.4 °F 70% 30.19 in 10.0 mi East 3.5 mph - N/A   Overcast
6:53 PM 37.4 °F 34.9 °F 28.4 °F 70% 30.19 in 10.0 mi East 3.5 mph - N/A   Overcast
7:13 PM 37.4 °F 33.8 °F 30.2 °F 75% 30.20 in 10.0 mi ENE 4.6 mph - N/A   Overcast
7:33 PM 37.4 °F 34.9 °F 30.2 °F 75% 30.20 in 10.0 mi ENE 3.5 mph - N/A   Overcast
7:53 PM 37.4 °F 34.9 °F 30.2 °F 75% 30.20 in 10.0 mi ENE 3.5 mph - N/A   Overcast
8:13 PM 37.4 °F - 30.2 °F 75% 30.20 in 10.0 mi Calm Calm - N/A   Overcast
8:33 PM 37.4 °F - 30.2 °F 75% 30.20 in 10.0 mi Calm Calm - N/A   Scattered Clouds
8:53 PM 37.4 °F - 30.2 °F 75% 30.20 in 10.0 mi Calm Calm - N/A   Mostly Cloudy
9:13 PM 35.6 °F 31.7 °F 30.2 °F 81% 30.20 in 10.0 mi ENE 4.6 mph - N/A   Unknown
9:33 PM 35.6 °F - 30.2 °F 81% 30.21 in 10.0 mi Calm Calm - N/A   Overcast
9:53 PM 35.6 °F - 30.2 °F 81% 30.21 in 10.0 mi Calm Calm - N/A   Light Drizzle
10:13 PM 35.6 °F - 30.2 °F 81% 30.22 in 10.0 mi Calm Calm - N/A   Overcast
10:33 PM 35.6 °F - 30.2 °F 81% 30.22 in 10.0 mi Calm Calm - N/A   Light Drizzle
10:53 PM 35.6 °F 32.8 °F 30.2 °F 81% 30.22 in 10.0 mi East 3.5 mph - N/A   Light Drizzle
11:13 PM 35.6 °F - 30.2 °F 81% 30.22 in 10.0 mi Calm Calm - N/A   Light Drizzle
11:33 PM 35.6 °F 32.8 °F 30.2 °F 81% 30.22 in 10.0 mi ESE 3.5 mph - N/A   Overcast
11:53 PM 35.6 °F 31.7 °F 30.2 °F 81% 30.21 in 10.0 mi ESE 4.6 mph - N/A   Overcast